Location: Beaver Brook Station
(42.3793°N, 71.2203°W)
Time: 01:08:03
(UTC+00:00)

Helios 1A Rocket - Pass Details

Date: 29 October 2020
Orbit: 563 x 586 km, 98.3° (Epoch: 05 December)

Event Time Altitude Azimuth Distance (km) Brightness Sun altitude
Rises 23:35:28 0° 180° (S) 2,793 6.4 -21.6°
Reaches altitude 10° 23:37:41 10° 187° (S) 1,895 5.6 -22.0°
Maximum altitude 23:41:37 44° 260° (W) 808 4.0 -22.7°
Drops below altitude 10° 23:45:34 10° 334° (NNW) 1,897 5.9 -23.4°
Sets 23:47:48 0° 340° (NNW) 2,797 6.7 -23.9°
